[[{"header":{"parameterUnit":"m.s-1","parameterCategory":1,"la1":30.2991,"la2":30.254,"lo1":-89.0895,"lo2":-89.0444,"dy":0.0017,"dx":0.0017,"nx":28,"ny":28,"refTime":"2024-12-01T03:00:00:Z","depth":0,"parameterNumber":2,"parameterNumberName":"U-component_of_WINDS"},"data":[0,0,0,0,0,0,0,0,0,0,0,0,0,0,0,0,0,0,0,0,0,0,0,0,0,0,0,0,0,0,0,0,0,0,0,0,0,0,0,0,0,0,0,0,0,0,0,0,0,0,0,0,0,0,0,0,0,0,-1.9157,-1.9158,0,-1.9221,-1.9221,-1.9222,-1.9127,-1.9123,-1.912,-1.9117,-1.9184,-1.9188,-1.9193,0,0,0,0,0,0,0,0,0,0,0,0,0,-1.8955,-1.8959,-1.9157,-1.9158,-1.9159,-1.922,-1.9221,-1.9222,-1.9127,-1.9123,-1.9119,-1.9115,-1.9182,-1.9188,-1.9194,0,0,0,0,0,0,0,0,0,0,0,0,0,-1.9033,-1.896,-1.9157,-1.9119,-1.9116,-1.922,-1.9221,-1.9222,-1.9128,-1.9123,-1.9118,-1.9114,-1.918,-1.9187,-1.9194,-1.934,0,0,-1.9217,-1.922,0,0,0,0,0,0,0,0,-1.9029,-1.904,-1.9124,-1.9122,-1.9119,-1.9161,-1.9174,-1.9262,-1.9129,-1.9124,-1.9117,-1.9111,-1.918,-1.9187,-1.921,-1.9343,-1.9346,-1.9217,-1.9222,-1.9225,-1.9227,0,0,0,0,0,0,0,-1.9023,-1.9037,-1.9182,-1.9125,-1.9122,-1.9099,-1.9104,-1.919,-1.9179,-1.9124,-1.9117,-1.9126,-1.9178,-1.9203,-1.9211,-1.9347,-1.9217,-1.9224,-1.9228,-1.9231,-1.96,-1.9605,0,0,0,0,0,0,-1.9022,-1.9033,-1.918,-1.9184,-1.906,-1.9106,-1.9113,-1.9152,-1.9178,-1.9177,-1.913,-1.9121,-1.9193,-1.9202,-1.9213,-1.9384,-1.9225,-1.9232,-1.9236,-1.9594,-1.9601,-1.9607,0,0,0,0,0,0,-1.9018,-1.9036,-1.9178,-1.9107,-1.9123,-1.9115,-1.916,-1.9156,-1.9181,-1.9183,-1.918,-1.9158,-1.919,-1.9203,-1.9308,-1.9385,-1.9235,-1.9242,-1.9588,-1.9596,-1.9604,-1.9727,0,0,0,0,0,0,-1.9013,-1.9035,-1.9091,-1.9109,-1.9127,-1.9273,-1.9165,-1.9161,-1.9194,-1.9183,-1.9208,-1.9208,-1.9187,-1.9298,-1.9316,-1.9392,-1.9248,-1.9581,-1.9592,-1.9601,-1.9716,-1.9738,-1.9757,0,0,0,0,0,-1.9006,-1.9124,-1.9094,-1.9112,-1.9196,-1.9277,-1.9288,-1.9261,-1.9201,-1.9256,-1.9256,-1.9207,-1.9373,-1.931,-1.9329,-1.9408,-1.9576,-1.9589,-1.96,-1.9707,-1.9734,-1.9757,0,0,0,0,0,0,-1.9116,-1.9125,-1.9093,-1.922,-1.9248,-1.9261,-1.933,-1.9291,-1.9337,-1.9325,-1.929,-1.9296,-1.941,-1.9419,-1.9348,-1.9549,-1.9465,-1.9481,-1.9539,-1.9565,-1.9585,-1.9581,-1.9254,0,0,0,0,0,-1.9155,-1.9219,-1.9224,-1.9336,-1.9352,-1.9339,-1.9373,-1.9349,-1.9378,-1.939,-1.9398,-1.9428,-1.9486,-1.9526,-1.958,-1.9717,-1.972,-1.9781,-1.9801,-1.9818,-1.9833,-1.9905,-1.9931,-1.9647,-1.9646,-1.9646,0,0,-1.9236,-1.9249,-1.9293,-1.9358,-1.9378,-1.9445,-1.935,-1.9426,-1.9476,-1.9401,-1.9501,-1.9508,-1.9539,-1.9661,-1.9714,-1.9672,-1.9912,-1.9834,-1.9847,-1.9853,-1.992,-1.9947,-1.9971,-1.9655,-1.9653,-1.9652,0,0,-1.9419,-1.9436,-1.953,-1.9551,-1.958,-1.9571,-1.9593,-1.9612,-1.9613,-1.9713,-1.9658,-1.9716,-1.9819,-1.9842,-1.9868,-2.0057,-2.0013,-2.0076,-2.0184,-2.0254,-2.0277,-2.0296,-2.0363,-2.0388,-2.0091,-2.0091,-2.0091,0,-1.9517,-1.9616,-1.9583,-1.9663,-1.9693,-1.9628,-1.9722,-1.9744,-1.9791,-1.9813,-1.9765,-1.9891,-1.9907,-2.0032,-2.0078,-2.0101,-2.0126,-2.0074,-2.0276,-2.0296,-2.0313,-2.0377,-2.0402,-2.0099,-2.0098,-2.0097,-2.0096,0,-1.9734,-1.9804,-1.9877,-1.9922,-1.996,-2.0047,-2.0027,-2.007,-2.0043,-2.0038,-2.0139,-2.0156,-2.0212,-2.0239,-2.0214,-2.0361,-2.0334,-2.0282,-2.0196,-2.0349,-2.0408,-2.0432,-2.0109,-2.0106,-2.0104,-2.0102,0,0,-1.999,-2.0014,-2.0042,-2.0061,-2.0088,-2.0141,-2.0225,-2.0278,-2.0315,-2.0349,-2.0418,-2.0505,-2.0456,-2.0485,-2.0461,-2.0523,-2.0671,-2.0462,-2.0463,-2.05,-2.0833,-2.0872,-2.0901,-2.0641,-2.0646,-2.0649,-2.083,0,-2.0172,-2.0315,-2.0287,-2.0428,-2.0491,-2.0429,-2.0501,-2.0526,-2.0523,-2.0576,-2.0573,-2.0635,-2.0566,-2.0583,-2.0641,-2.0641,-2.0737,-2.0627,-2.0705,-2.0708,-2.0699,-2.0932,-2.0974,-2.1144,-2.0853,-2.0857,-2.0859,0,-2.0404,-2.0445,-2.0591,-2.0607,-2.0632,-2.0698,-2.0744,-2.0796,-2.0822,-2.0815,-2.0847,-2.0811,-2.0893,-2.0806,-2.0918,-2.0844,-2.0874,-2.0878,-2.0884,-2.0891,-2.0793,-2.0944,-2.1197,-2.1223,-2.0896,-2.0893,-2.089,0,-2.0575,-2.0667,-2.0766,-2.0784,-2.0805,-2.0853,-2.0864,-2.0884,-2.0918,-2.0958,-2.0979,-2.1028,-2.1056,-2.1095,-2.1073,-2.1011,-2.1189,-2.11,-2.1186,-2.1186,-2.1227,-2.1224,-2.1488,-2.1246,-2.1246,-2.1245,-2.1245,0,-2.0781,-2.0873,-2.0843,-2.0904,-2.1005,-2.0971,-2.1072,-2.1076,-2.1094,-2.1155,-2.1104,-2.1161,-2.1129,-2.1184,-2.1167,-2.1262,-2.1275,-2.1272,-2.1266,-2.1277,-2.1277,-2.1296,-2.1284,-2.1252,-2.125,-2.1249,-2.1248,0,-2.099,-2.0974,-2.1078,-2.1088,-2.1092,-2.1166,-2.1175,-2.1232,-2.1224,-2.1301,-2.1317,-2.1306,-2.1367,-2.1349,-2.1416,-2.1405,-2.1525,-2.1505,-2.1517,-2.1512,-2.1598,-2.159,-2.1883,-2.1919,-2.1654,-2.1657,-2.1659,0,-2.1123,-2.1192,-2.1209,-2.1246,-2.126,-2.132,-2.1353,-2.1322,-2.1359,-2.1392,-2.1445,-2.1502,-2.1546,-2.1648,-2.1645,-2.1696,-2.1676,-2.1775,-2.1683,-2.1691,-2.1677,-2.1673,-2.1679,-2.1794,-2.1797,-2.1799,-2.1801,0,-2.1361,-2.1348,-2.1398,-2.1445,-2.1486,-2.1522,-2.1552,-2.1585,-2.1556,-2.16,-2.1662,-2.1696,-2.1763,-2.1821,-2.1866,-2.1877,-2.1835,-2.183,-2.1852,-2.1864,-2.1867,-2.1866,-2.1566,-2.1824,-2.1821,-2.182,-2.1818,-2.1818,-2.1535,-2.1593,-2.1614,-2.1671,-2.169,-2.172,-2.1773,-2.1771,-2.1822,-2.1874,-2.1853,-2.1924,-2.1946,-2.2003,-2.202,-2.2075,-2.2037,-2.207,-2.2078,-2.2086,-2.2097,-2.1858,-2.2083,-2.2082,-2.2082,-2.2081,-2.2081,0,-2.177,-2.1779,-2.1832,-2.1876,-2.192,-2.1875,-2.1906,-2.1946,-2.201,-2.2034,-2.2077,-2.2148,-2.2203,-2.2204,-2.2254,-2.2298,-2.228,-2.2313,-2.2309,-2.2312,-2.2128,-2.2104,-2.2326,-2.2326,-2.2326,-2.2326,-2.2326,-2.2326,-2.1897,-2.1992,-2.1982,-2.2086,-2.2095,-2.2164,-2.2185,-2.2212,-2.223,-2.2311,-2.2356,-2.2356,-2.2371,-2.2422,-2.2469,-2.2468,-2.2489,-2.2529,-2.2521,-2.2349,-2.2325,-2.2302,-2.2278,-2.2534,-2.2534,-2.2699,-2.2701,-2.2702]},{"header":{"parameterUnit":"m.s-1","parameterCategory":1,"la1":30.2991,"la2":30.254,"lo1":-89.0895,"lo2":-89.0444,"dy":0.0017,"dx":0.0017,"nx":28,"ny":28,"refTime":"2024-12-01T03:00:00:Z","depth":0,"parameterNumber":3,"parameterNumberName":"V-component_of_WINDS"},"data":[0,0,0,0,0,0,0,0,0,0,0,0,0,0,0,0,0,0,0,0,0,0,0,0,0,0,0,0,0,0,0,0,0,0,0,0,0,0,0,0,0,0,0,0,0,0,0,0,0,0,0,0,0,0,0,0,0,0,-3.1443,-3.1444,0,-3.1511,-3.1511,-3.1512,-3.1484,-3.1482,-3.1481,-3.1479,-3.1546,-3.1549,-3.1552,0,0,0,0,0,0,0,0,0,0,0,0,0,-3.1286,-3.1289,-3.1443,-3.1444,-3.1445,-3.1511,-3.1511,-3.1512,-3.1484,-3.1482,-3.148,-3.1479,-3.1545,-3.1549,-3.1553,0,0,0,0,0,0,0,0,0,0,0,0,0,-3.1354,-3.129,-3.1443,-3.1439,-3.1439,-3.151,-3.1511,-3.1513,-3.1485,-3.1482,-3.148,-3.1478,-3.1543,-3.1548,-3.1553,-3.1632,0,0,-3.1568,-3.157,0,0,0,0,0,0,0,0,-3.135,-3.136,-3.1439,-3.1439,-3.144,-3.1487,-3.148,-3.1552,-3.1485,-3.1467,-3.1479,-3.1477,-3.1528,-3.1534,-3.1552,-3.1635,-3.1638,-3.1568,-3.1571,-3.1574,-3.1575,0,0,0,0,0,0,0,-3.1345,-3.1357,-3.147,-3.144,-3.144,-3.1432,-3.1439,-3.1494,-3.151,-3.1469,-3.1467,-3.1475,-3.1528,-3.1547,-3.1553,-3.1638,-3.1568,-3.1573,-3.1576,-3.1578,-3.1787,-3.1789,0,0,0,0,0,0,-3.1341,-3.1353,-3.1468,-3.1472,-3.1388,-3.1437,-3.1445,-3.1474,-3.151,-3.1513,-3.1477,-3.1474,-3.154,-3.1547,-3.1555,-3.1648,-3.1574,-3.1578,-3.1581,-3.1784,-3.1787,-3.179,0,0,0,0,0,0,-3.1338,-3.1352,-3.1465,-3.1412,-3.1426,-3.1442,-3.1475,-3.1476,-3.1496,-3.1516,-3.1519,-3.1495,-3.1538,-3.1548,-3.1612,-3.165,-3.158,-3.1585,-3.1781,-3.1785,-3.1789,-3.1835,0,0,0,0,0,0,-3.1334,-3.1351,-3.1382,-3.1413,-3.1429,-3.1522,-3.1478,-3.148,-3.1505,-3.1501,-3.1533,-3.1536,-3.1537,-3.1605,-3.1617,-3.1655,-3.1589,-3.1778,-3.1783,-3.1788,-3.183,-3.184,-3.1848,0,0,0,0,0,-3.1328,-3.1392,-3.1383,-3.1397,-3.1468,-3.1524,-3.1533,-3.1534,-3.1508,-3.1538,-3.1551,-3.1535,-3.1644,-3.1612,-3.1625,-3.1666,-3.1775,-3.1781,-3.1787,-3.1826,-3.1838,-3.1848,0,0,0,0,0,0,-3.1364,-3.1396,-3.1387,-3.1463,-3.1491,-3.152,-3.1558,-3.1547,-3.1583,-3.1578,-3.1577,-3.1584,-3.165,-3.1664,-3.1628,-3.1742,-3.1706,-3.1714,-3.1731,-3.1742,-3.1751,-3.1746,-3.1593,0,0,0,0,0,-3.1381,-3.1425,-3.145,-3.1515,-3.153,-3.1542,-3.1566,-3.1565,-3.1594,-3.1605,-3.1623,-3.165,-3.1691,-3.1717,-3.1756,-3.1832,-3.1838,-3.1866,-3.1875,-3.1883,-3.189,-3.1929,-3.1942,-3.181,-3.1809,-3.1809,0,0,-3.1416,-3.1439,-3.1467,-3.1523,-3.1544,-3.1589,-3.1552,-3.1601,-3.1633,-3.1612,-3.1674,-3.1687,-3.1718,-3.1788,-3.182,-3.1802,-3.1928,-3.189,-3.1896,-3.1899,-3.1937,-3.1949,-3.196,-3.1814,-3.1813,-3.1812,0,0,-3.1503,-3.1525,-3.1581,-3.1603,-3.1637,-3.1644,-3.1657,-3.1687,-3.1696,-3.1757,-3.1742,-3.178,-3.185,-3.1872,-3.1893,-3.1986,-3.1972,-3.1999,-3.2046,-3.2084,-3.2095,-3.2104,-3.2136,-3.2147,-3.2006,-3.2006,-3.2006,0,-3.1542,-3.1609,-3.161,-3.166,-3.1684,-3.1668,-3.1723,-3.1744,-3.1789,-3.1805,-3.1785,-3.1871,-3.1891,-3.1965,-3.1988,-3.2006,-3.2019,-3.1995,-3.2093,-3.2103,-3.2111,-3.2141,-3.2153,-3.2009,-3.2009,-3.2009,-3.2008,0,-3.1655,-3.1702,-3.1742,-3.1786,-3.1814,-3.1867,-3.1874,-3.1903,-3.1899,-3.1908,-3.1969,-3.1993,-3.2034,-3.2052,-3.2049,-3.2125,-3.2113,-3.2093,-3.2056,-3.2127,-3.2155,-3.2167,-3.2013,-3.2012,-3.2011,-3.2011,0,0,-3.1766,-3.1809,-3.1823,-3.1842,-3.1877,-3.1913,-3.1964,-3.2005,-3.2029,-3.206,-3.2101,-3.216,-3.2142,-3.2165,-3.2163,-3.2197,-3.2268,-3.2173,-3.2174,-3.2188,-3.2352,-3.2365,-3.2379,-3.2259,-3.2261,-3.2263,-3.2348,0,-3.1854,-3.1944,-3.1946,-3.2027,-3.207,-3.2054,-3.2098,-3.2123,-3.2133,-3.2169,-3.2179,-3.2221,-3.2194,-3.2208,-3.2241,-3.2252,-3.23,-3.2246,-3.2295,-3.2297,-3.2287,-3.2394,-3.2409,-3.2488,-3.236,-3.2362,-3.2363,0,-3.1969,-3.2003,-3.2089,-3.2117,-3.2135,-3.2174,-3.2212,-3.2247,-3.2275,-3.2279,-3.2305,-3.2298,-3.2348,-3.231,-3.2378,-3.2341,-3.2361,-3.237,-3.2373,-3.2376,-3.2333,-3.2398,-3.2514,-3.2525,-3.2381,-3.2379,-3.2378,0,-3.2039,-3.2107,-3.2167,-3.2183,-3.2218,-3.2245,-3.2261,-3.2287,-3.2311,-3.2343,-3.2359,-3.2396,-3.2417,-3.2445,-3.2448,-3.242,-3.2516,-3.2478,-3.2519,-3.2519,-3.2539,-3.2537,-3.2658,-3.2555,-3.2554,-3.2554,-3.2554,0,-3.2136,-3.2189,-3.2198,-3.2235,-3.2293,-3.2294,-3.2351,-3.2364,-3.2387,-3.2425,-3.2414,-3.2449,-3.2451,-3.2487,-3.2489,-3.2544,-3.2554,-3.2557,-3.2557,-3.2558,-3.2557,-3.257,-3.2564,-3.2557,-3.2557,-3.2556,-3.2555,0,-3.2224,-3.2233,-3.2297,-3.2324,-3.2332,-3.2373,-3.2396,-3.243,-3.2438,-3.2486,-3.2497,-3.251,-3.2551,-3.2557,-3.2606,-3.2607,-3.2672,-3.2667,-3.2663,-3.2661,-3.2701,-3.2697,-3.2833,-3.285,-3.2737,-3.2738,-3.2739,0,-3.2285,-3.2325,-3.2356,-3.2381,-3.2398,-3.2438,-3.2463,-3.2465,-3.2491,-3.2525,-3.2555,-3.2595,-3.2628,-3.2694,-3.2707,-3.2744,-3.2738,-3.2783,-3.2743,-3.2742,-3.2736,-3.2733,-3.2737,-3.279,-3.2792,-3.2793,-3.2793,0,-3.2391,-3.2393,-3.243,-3.2468,-3.2498,-3.2527,-3.2555,-3.2576,-3.2581,-3.2611,-3.2653,-3.2678,-3.2728,-3.2767,-3.2803,-3.2818,-3.2806,-3.2806,-3.2817,-3.2817,-3.2813,-3.2814,-3.2682,-3.2803,-3.2802,-3.2801,-3.2801,-3.28,-3.2466,-3.2501,-3.2528,-3.2568,-3.2589,-3.2615,-3.2648,-3.2661,-3.2697,-3.2737,-3.2736,-3.2782,-3.2807,-3.2855,-3.2871,-3.2907,-3.2892,-3.2908,-3.2912,-3.2916,-3.2919,-3.2808,-3.2913,-3.2913,-3.2913,-3.2913,-3.2912,0,-3.257,-3.2587,-3.2624,-3.2664,-3.2695,-3.2682,-3.2712,-3.2739,-3.278,-3.2805,-3.2837,-3.2885,-3.2923,-3.2939,-3.2976,-3.3001,-3.2996,-3.301,-3.3007,-3.301,-3.2931,-3.2917,-3.3013,-3.3013,-3.3013,-3.3013,-3.3013,-3.3013,-3.2628,-3.2685,-3.269,-3.2757,-3.2773,-3.2818,-3.2836,-3.286,-3.2879,-3.2933,-3.2965,-3.2975,-3.2996,-3.3034,-3.3068,-3.3071,-3.3084,-3.3101,-3.3101,-3.3027,-3.3016,-3.3007,-3.2993,-3.3104,-3.3104,-3.3178,-3.3179,-3.3179]}]]